GW2327 Weather Reports


Display with metric or nautical units.
time (UTC)temp
F
wind
direction
speed
MPH
gust
MPH
rain 1hr
in
rain 24hr
in
rain mn
in
humidity
%
barometer
mb
20260506184535 58 202 2.0 7.0 0.04 0.07 0.07 90 1007.7
20260506183041 57 0 0.0 5.0 0.05 0.07 0.07 90 1007.7
20260506181542 57 181 1.0 4.0 0.04 0.05 0.05 90 1008.0
20260506180048 57 175 0.0 5.0 0.03 0.03 0.03 89 1008.0
20260506174538 58 0 0.0 4.0 0.03 0.03 0.03 89 1008.0
20260506173037 58 136 0.0 5.0 0.02 0.02 0.02 89 1008.2
20260506171547 58 172 0.0 5.0 0.01 0.01 0.01 88 1008.7
20260506170042 58 191 1.0 5.0 0.00 0.00 0.00 87 1009.1
20260506164539 59 165 1.0 4.0 0.00 0.00 0.00 85 1009.2
20260506163046 61 192 1.0 4.0 0.00 0.00 0.00 82 1009.0
20260506161549 62 107 1.0 5.0 0.00 0.00 0.00 80 1009.2
20260506160034 63 0 1.0 5.0 0.00 0.00 0.00 79 1009.4
20260506154544 63 207 1.0 5.0 0.00 0.00 0.00 80 1009.4
20260506153043 63 184 2.0 6.0 0.00 0.00 0.00 78 1009.8
20260506151540 63 175 2.0 7.0 0.00 0.00 0.00 79 1009.4
20260506150038 63 175 2.0 5.0 0.00 0.00 0.00 78 1009.4
20260506144538 64 212 3.0 8.0 0.00 0.00 0.00 77 1009.3
20260506143036 64 201 2.0 7.0 0.00 0.00 0.00 77 1009.5
20260506141539 65 207 2.0 7.0 0.00 0.00 0.00 77 1009.5
20260506140045 63 196 3.0 6.0 0.00 0.00 0.00 78 1009.6
20260506134606 64 186 2.0 8.0 0.00 0.00 0.00 80 1009.6
20260506133036 63 0 2.0 6.0 0.00 0.00 0.00 81 1009.3
20260506131533 61 194 1.0 6.0 0.00 0.00 0.00 82 1009.5
20260506130041 61 182 2.0 5.0 0.00 0.00 0.00 82 1009.6
20260506124540 61 206 2.0 5.0 0.00 0.00 0.00 83 1009.6
20260506123044 61 30 1.0 5.0 0.00 0.00 0.00 84 1010.0
20260506121538 60 207 1.0 6.0 0.00 0.00 0.00 85 1009.8
20260506120035 59 54 2.0 8.0 0.00 0.00 0.00 86 1009.9
20260506114543 58 0 1.0 4.0 0.00 0.00 0.00 87 1009.8
20260506113042 58 200 1.0 4.0 0.00 0.00 0.00 88 1009.7
20260506111539 56 148 1.0 3.0 0.00 0.00 0.00 88 1009.9
20260506110038 56 100 1.0 8.0 0.00 0.00 0.00 89 1010.1
20260506104533 56 157 1.0 4.0 0.00 0.00 0.00 89 1009.8
20260506103043 55 156 0.0 3.0 0.00 0.00 0.00 90 1009.9
20260506101541 53 103 0.0 1.0 0.00 0.00 0.00 89 1009.8
20260506100039 53 0 0.0 2.0 0.00 0.00 0.00 89 1009.9
20260506094539 54 0 0.0 3.0 0.00 0.00 0.00 88 1009.8
20260506093037 54 0 0.0 4.0 0.00 0.00 0.00 88 1009.8
20260506091534 55 179 0.0 3.0 0.00 0.00 0.00 87 1010.0
20260506090041 55 0 0.0 5.0 0.00 0.00 0.00 87 1009.8
20260506084541 55 0 0.0 3.0 0.00 0.00 0.00 87 1010.0
20260506083042 56 0 0.0 5.0 0.00 0.00 0.00 87 1010.1
20260506081547 56 171 0.0 5.0 0.00 0.00 0.00 87 1010.0
20260506073041 56 167 1.0 4.0 0.00 0.00 0.00 86 1010.2
20260506071543 56 163 0.0 5.0 0.00 0.00 0.00 85 1010.2
20260506061538 57 168 0.0 3.0 0.00 0.00 0.00 84 1010.0
20260506044540 60 159 0.0 4.0 0.00 0.00 0.00 79 1010.3
20260506043040 60 189 2.0 4.0 0.00 0.00 0.00 78 1010.3
20260506041540 60 165 1.0 5.0 0.00 0.00 0.00 77 1010.2
20260506040039 61 194 1.0 6.0 0.00 0.00 0.00 77 1010.4
20260506034534 61 0 1.0 4.0 0.00 0.00 0.00 76 1010.4
20260506033036 61 122 2.0 5.0 0.00 0.00 0.00 74 1010.3
20260506031542 61 192 2.0 4.0 0.00 0.00 0.00 73 1010.2
20260506030040 61 205 2.0 5.0 0.00 0.00 0.00 73 1010.4
20260506024548 61 165 1.0 4.0 0.00 0.00 0.00 72 1010.2
20260506023038 61 173 1.0 5.0 0.00 0.00 0.00 72 1010.2
20260506021533 62 150 1.0 8.0 0.00 0.00 0.00 71 1010.1
20260506020040 61 150 1.0 6.0 0.00 0.00 0.00 72 1010.2
20260506014541 61 171 1.0 5.0 0.00 0.00 0.00 71 1010.0
20260506013039 61 216 1.0 4.0 0.00 0.00 0.00 71 1009.9
20260506011601 62 163 1.0 5.0 0.00 0.00 0.00 71 1009.8
20260506010038 62 190 1.0 5.0 0.00 0.00 0.00 69 1009.6
20260506004542 62 173 2.0 5.0 0.00 0.00 0.00 69 1009.5
20260506003035 63 159 2.0 7.0 0.00 0.00 0.00 68 1009.3
20260506001543 63 177 2.0 6.0 0.00 0.00 0.00 67 1008.9
20260506000106 63 0 1.0 6.0 0.00 0.00 0.00 67 1008.9
20260505234545 63 170 3.0 8.0 0.00 0.00 0.00 67 1008.8
20260505233035 64 173 2.0 8.0 0.00 0.00 0.00 66 1008.7
20260505231537 65 185 4.0 9.0 0.00 0.00 0.00 65 1008.3
20260505230058 65 209 3.0 9.0 0.00 0.00 0.00 65 1008.1
20260505224542 66 186 2.0 7.0 0.00 0.00 0.00 64 1007.9
20260505223040 67 209 1.0 15.0 0.00 0.00 0.00 63 1008.2
20260505221539 67 187 2.0 5.0 0.00 0.00 0.00 65 1008.3
20260505220034 67 173 2.0 8.0 0.00 0.00 0.00 64 1008.2
20260505214533 67 163 2.0 6.0 0.00 0.00 0.00 64 1008.0
20260505213040 67 178 3.0 7.0 0.00 0.00 0.00 64 1008.1
20260505211542 68 123 3.0 9.0 0.00 0.00 0.00 63 1007.8
20260505210037 69 154 1.0 6.0 0.00 0.00 0.00 63 1008.1
20260505204547 69 239 1.0 7.0 0.00 0.00 0.00 61 1008.0
20260505203053 70 215 2.0 7.0 0.00 0.00 0.00 61 1007.8
20260505201543 71 265 3.0 6.0 0.00 0.00 0.00 61 1008.0
20260505200039 71 155 2.0 8.0 0.00 0.00 0.00 62 1008.3
20260505194551 72 148 1.0 8.0 0.00 0.00 0.00 62 1008.3
20260505193038 71 161 2.0 7.0 0.00 0.00 0.00 62 1008.3
20260505191554 72 151 3.0 8.0 0.00 0.00 0.00 60 1008.6
20260505190040 71 160 4.0 9.0 0.00 0.00 0.00 61 1008.9